Location: ????
(55.2778°N, 39.2433°E)
Time: 03:07:37
(UTC+00:00)

Cosmos 1340 - Visible Passes

Search period start: 25 July 2024 00:00
Search period end: 04 August 2024 00:00
Orbit: 426 x 429 km, 81.2° (Epoch: 24 July)

Date Brightness Start Highest point End Pass type
(mag) Time Alt. Az. Time Alt. Az. Time Alt. Az.
25 Jul 4.7 22:29:58 10° SE 22:32:09 16° E 22:34:20 10° NE visible
26 Jul 2.8 00:02:58 12° SW 00:05:52 46° WNW 00:09:07 10° N visible
26 Jul 2.4 23:20:55 18° S 23:23:14 72° ESE 23:26:35 10° NNE visible
27 Jul 3.8 22:38:47 17° SE 22:40:43 29° E 22:43:40 10° NNE visible
28 Jul 3.8 00:11:59 10° WSW 00:14:46 25° WNW 00:17:37 10° N visible
28 Jul 4.8 21:56:35 10° ESE 21:58:16 14° E 22:00:04 10° NE visible
28 Jul 2.6 23:29:46 20° SSW 23:31:53 56° WNW 23:35:11 10° N visible
29 Jul 2.7 22:47:30 26° S 22:49:06 58° E 22:52:24 10° NNE visible
30 Jul 4.5 00:21:26 10° W 00:23:29 15° WNW 00:25:33 10° NNW visible
30 Jul 4.0 22:05:09 19° SE 22:06:26 24° E 22:09:12 10° NE visible
30 Jul 3.6 23:38:19 16° WSW 23:40:21 30° WNW 23:43:22 10° N visible
31 Jul 4.9 21:22:43 10° ESE 21:23:50 12° E 21:25:01 10° ENE visible
31 Jul 2.3 22:55:53 31° SSW 22:57:20 71° WNW 23:00:41 10° N visible
01 Aug 3.0 22:13:24 33° SSE 22:14:25 46° E 22:17:38 10° NNE visible
01 Aug 4.4 23:46:33 11° WSW 23:48:40 18° WNW 23:51:03 10° NNW visible
02 Aug 4.2 21:30:49 19° ESE 21:31:35 20° E 21:34:07 10° NE visible
02 Aug 3.3 23:03:59 24° WSW 23:05:24 36° WNW 23:08:32 10° N visible
03 Aug 2.2 22:21:20 46° SSW 22:22:14 89° W 22:25:36 10° NNE visible
03 Aug 4.9 23:55:48 10° WNW 23:56:49 11° NW 23:57:50 10° NW visible
